Погода в Письменном

Украина / Днепропетровская область     48°12′06″N   35°48′20″E
темп.,
°C
ветер,
м/с
пор.,
м/с
влажн.,
%
обл.,
%
осадки,
мм/ч
давл.,
гПа
погр.,
м
13 мая, чт
чт1300:00+7ююв45875 0.0 101383
03:00+6ю349136 0.0 101347
06:00+7ю3387100 0.0 101359
09:00+13ю34633 0.0 1013594
12:00+17ю344569 0.0 10131361
15:00+19ю3442100 0.0 10121494
18:00+19ююв2361100 0.0 101285
21:00+14ююв337655 0.0 101232
14 мая, пт
пт1400:00+12вюв358552 0.0 101274
03:00+12вюв479162 0.0 1011116
06:00+13вюв389576 0.5 1010178
09:00+16юв4786100 0.7 1010304
12:00+23ююв5659100 0.0 1010991
15:00+25ююз464593 0.0 10091638
18:00+23юз4753100 0.0 1009366
21:00+17юз4667100 0.0 101080
15 мая, сб
сб1500:00+15юз498099 0.0 1011155
03:00+13юз358818 0.0 101290
06:00+13юз37845 0.0 1013148
09:00+19юз47630 0.0 1014593
12:00+22юз564797 0.0 10141796
15:00+23юз56425 0.0 10142253
18:00+23юз34505 0.0 10131839
21:00+17зсз11640 0.0 101411
16 мая, вс
вс1600:00+17всв2262100 0.0 101321
03:00+14всв117218 0.0 101411
06:00+14всв347619 0.0 101359
09:00+20св466061 0.0 1013376
12:00+24всв5648100 0.0 10121447
15:00+26св5647100 0.0 10101772
18:00+25св585879 0.0 1009609
21:00+20ссв4117877 0.0 1008225
17 мая, пн
пн1700:00+18всв4885100 0.0 1007149
03:00+15св3585100 0.0 100677
06:00+16в3583100 0.0 100694
09:00+21вюв576063 0.0 1005398
12:00+25юв674955 0.0 10041102
15:00+27ююв695461 0.0 10041764
18:00+25ю576470 0.3 1004879
21:00+19ююз348797 1.8 100657